Total_Precipitation_Accumulation
0.67 0.53 0.32 0.37 0.35 0.50 0.49 0.20 0.13 0.05 0.08 0.08 0.02 0.01 0.01 0.00 0.01 0.01 0.02 0.03 0.02 0.02 0.01 0.00 0.00 0.00 0.00 0.00 0.00 0.00 0.00 0.00
0.23 0.83 0.54 0.47 0.49 0.49 0.46 0.32 0.25 0.20 0.13 0.15 0.09 0.02 0.01 0.00 0.01 0.01 0.03 0.03 0.03 0.02 0.01 0.00 0.00 0.00 0.00 0.00 0.00 0.00 0.00 0.00
0.07 0.41 0.70 0.35 0.32 0.48 0.51 0.40 0.33 0.38 0.32 0.24 0.13 0.03 0.00 0.00 0.00 0.04 0.05 0.05 0.05 0.02 0.01 0.00 0.00 0.00 0.00 0.00 0.00 0.00 0.00 0.00
0.01 0.30 0.76 0.70 0.36 0.34 0.49 0.50 0.35 0.48 0.58 0.50 0.24 0.09 0.01 0.00 0.01 0.04 0.07 0.11 0.09 0.03 0.02 0.00 0.00 0.00 0.00 0.00 0.00 0.00 0.00 0.00
0.02 0.11 0.22 0.80 0.94 0.40 0.46 0.72 0.50 0.34 0.40 0.58 0.28 0.14 0.05 0.00 0.00 0.01 0.03 0.08 0.15 0.07 0.03 0.00 0.00 0.00 0.00 0.00 0.00 0.00 0.00 0.00
0.00 0.22 0.19 0.18 0.86 1.00 0.87 0.77 0.77 0.44 0.34 0.34 0.34 0.14 0.07 0.02 0.00 0.02 0.06 0.06 0.10 0.12 0.04 0.01 0.00 0.00 0.00 0.00 0.00 0.00 0.00 0.00
0.00 0.05 0.37 0.42 0.33 0.77 1.38 1.62 1.01 0.68 0.38 0.24 0.20 0.15 0.09 0.03 0.01 0.02 0.07 0.08 0.06 0.07 0.07 0.04 0.03 0.00 0.00 0.00 0.00 0.00 0.00 0.00
0.00 0.00 0.20 0.56 0.80 0.42 0.70 1.58 1.44 0.84 0.39 0.22 0.10 0.06 0.08 0.05 0.02 0.02 0.03 0.06 0.04 0.02 0.02 0.03 0.02 0.03 0.01 0.01 0.00 0.00 0.00 0.00
0.00 0.00 0.04 0.47 0.70 0.79 0.47 0.83 1.06 1.04 0.57 0.25 0.10 0.03 0.03 0.03 0.03 0.02 0.03 0.03 0.03 0.02 0.04 0.04 0.10 0.11 0.07 0.02 0.00 0.00 0.00 0.00
0.00 0.00 0.00 0.16 0.68 0.90 0.65 0.65 0.93 0.74 0.77 0.40 0.17 0.08 0.07 0.03 0.01 0.02 0.04 0.06 0.07 0.05 0.05 0.06 0.07 0.08 0.06 0.03 0.00 0.00 0.00 0.00
0.00 0.00 0.00 0.06 0.31 0.78 0.87 0.61 0.50 0.87 0.70 0.60 0.26 0.10 0.07 0.07 0.03 0.01 0.01 0.05 0.08 0.16 0.09 0.07 0.07 0.06 0.06 0.03 0.02 0.01 0.00 0.00
0.00 0.00 0.00 0.02 0.17 0.52 0.99 1.12 0.67 0.54 0.69 0.54 0.38 0.17 0.10 0.09 0.06 0.02 0.01 0.04 0.08 0.15 0.20 0.10 0.08 0.04 0.02 0.01 0.01 0.01 0.00 0.00
0.00 0.00 0.00 0.03 0.36 0.51 0.51 1.08 1.41 0.81 0.50 0.50 0.41 0.30 0.13 0.10 0.08 0.03 0.03 0.03 0.05 0.08 0.20 0.16 0.09 0.06 0.03 0.00 0.00 0.01 0.01 0.00
0.00 0.00 0.01 0.01 0.12 0.50 0.37 0.28 0.73 1.13 0.98 0.69 0.42 0.47 0.29 0.12 0.07 0.05 0.03 0.03 0.04 0.09 0.13 0.10 0.10 0.10 0.06 0.03 0.03 0.02 0.00 0.00
0.03 0.02 0.02 0.02 0.10 0.23 0.48 0.27 0.24 0.57 0.81 0.89 0.58 0.46 0.36 0.18 0.08 0.06 0.05 0.03 0.02 0.08 0.10 0.07 0.03 0.12 0.08 0.06 0.05 0.03 0.02 0.01
0.16 0.14 0.11 0.12 0.17 0.13 0.30 0.41 0.30 0.26 0.45 0.44 0.48 0.47 0.41 0.21 0.15 0.08 0.09 0.09 0.04 0.04 0.12 0.10 0.05 0.13 0.07 0.04 0.03 0.02 0.02 0.01
0.22 0.21 0.27 0.27 0.23 0.19 0.12 0.44 0.33 0.22 0.20 0.25 0.27 0.36 0.43 0.31 0.14 0.09 0.08 0.10 0.08 0.07 0.06 0.06 0.06 0.03 0.03 0.08 0.10 0.06 0.03 0.02
0.37 0.28 0.32 0.25 0.31 0.30 0.19 0.32 0.58 0.32 0.22 0.18 0.25 0.29 0.38 0.31 0.20 0.12 0.08 0.06 0.09 0.10 0.09 0.13 0.06 0.02 0.07 0.04 0.10 0.11 0.05 0.03
0.48 0.40 0.33 0.31 0.23 0.31 0.35 0.32 0.53 0.60 0.45 0.19 0.20 0.35 0.42 0.37 0.29 0.16 0.13 0.12 0.08 0.07 0.08 0.10 0.17 0.11 0.09 0.09 0.14 0.20 0.11 0.06